Time,TemperatureF,DewpointF,PressureIn,WindDirection,WindDirectionDegrees,WindSpeedMPH,WindSpeedGustMPH,Humidity,HourlyPrecipIn,Conditions,Clouds,dailyrainin,SolarRadiationWatts/m^2,SoftwareType,DateUTC
2013-08-23 00:04:00,68.0,68.0,-100.00,SE,142,2.0,4.0,100,0.00,,,0.01,0.000000,,2013-08-23 04:04:00,
2013-08-23 00:13:00,68.0,68.0,-100.00,SE,142,2.0,4.0,100,0.00,,,0.01,0.000000,,2013-08-23 04:13:00,
2013-08-23 00:43:00,67.0,67.0,-100.00,SSE,160,1.0,3.0,100,0.00,,,0.01,0.000000,,2013-08-23 04:43:00,
2013-08-23 00:54:00,67.0,67.0,-100.00,SSE,160,1.0,3.0,100,0.00,,,0.01,0.000000,,2013-08-23 04:54:00,
2013-08-23 01:04:00,67.0,67.0,-100.00,SSE,160,1.0,3.0,100,0.00,,,0.01,0.000000,,2013-08-23 05:04:00,
2013-08-23 01:13:00,67.0,67.0,-100.00,SSE,160,1.0,3.0,100,0.00,,,0.01,0.000000,,2013-08-23 05:13:00,
2013-08-23 01:42:00,67.0,67.0,-100.00,WNW,303,1.0,3.0,100,0.00,,,0.01,0.000000,,2013-08-23 05:42:00,
2013-08-23 01:53:00,67.0,67.0,-100.00,WNW,303,1.0,3.0,100,0.00,,,0.01,0.000000,,2013-08-23 05:53:00,
2013-08-23 02:02:00,67.0,67.0,-100.00,WNW,303,1.0,3.0,100,0.00,,,0.01,0.000000,,2013-08-23 06:02:00,
2013-08-23 02:12:00,67.0,67.0,-100.00,WNW,303,1.0,3.0,100,0.00,,,0.01,0.000000,,2013-08-23 06:12:00,
2013-08-23 02:42:00,67.0,67.0,-100.00,West,278,2.0,3.0,100,0.00,,,0.01,0.000000,,2013-08-23 06:42:00,
2013-08-23 02:52:00,67.0,67.0,-100.00,West,278,2.0,3.0,100,0.00,,,0.01,0.000000,,2013-08-23 06:52:00,
2013-08-23 03:01:00,67.0,67.0,-100.00,West,278,2.0,3.0,100,0.00,,,0.01,0.000000,,2013-08-23 07:01:00,
2013-08-23 03:12:00,67.0,67.0,-100.00,West,278,2.0,3.0,100,0.00,,,0.01,0.000000,,2013-08-23 07:12:00,
2013-08-23 03:42:00,66.0,66.0,-100.00,West,259,2.0,4.0,100,0.00,,,0.01,0.000000,,2013-08-23 07:42:00,
2013-08-23 03:53:00,66.0,66.0,-100.00,West,259,2.0,4.0,100,0.00,,,0.01,0.000000,,2013-08-23 07:53:00,
2013-08-23 04:02:00,66.0,66.0,-100.00,West,259,2.0,4.0,100,0.00,,,0.01,0.000000,,2013-08-23 08:02:00,
2013-08-23 04:13:00,66.0,66.0,-100.00,West,259,2.0,4.0,100,0.00,,,0.01,0.000000,,2013-08-23 08:13:00,
2013-08-23 04:42:00,66.0,66.0,-100.00,WNW,294,2.0,3.0,100,0.00,,,0.01,0.000000,,2013-08-23 08:42:00,
2013-08-23 04:52:00,66.0,66.0,-100.00,WNW,294,2.0,3.0,100,0.00,,,0.01,0.000000,,2013-08-23 08:52:00,
2013-08-23 05:01:00,66.0,66.0,-100.00,WNW,294,2.0,3.0,100,0.00,,,0.01,0.000000,,2013-08-23 09:01:00,
2013-08-23 05:12:00,66.0,66.0,-100.00,WNW,294,2.0,3.0,100,0.00,,,0.01,0.000000,,2013-08-23 09:12:00,
2013-08-23 05:43:00,65.0,65.0,-100.00,WNW,296,2.0,3.0,100,0.00,,,0.01,0.000000,,2013-08-23 09:43:00,
2013-08-23 05:53:00,65.0,65.0,-100.00,WNW,296,2.0,3.0,100,0.00,,,0.01,0.000000,,2013-08-23 09:53:00,
2013-08-23 06:03:00,65.0,65.0,-100.00,WNW,296,2.0,3.0,100,0.00,,,0.01,0.000000,,2013-08-23 10:03:00,
2013-08-23 06:13:00,65.0,65.0,-100.00,WNW,296,2.0,3.0,100,0.00,,,0.01,0.000000,,2013-08-23 10:13:00,
2013-08-23 06:42:00,65.0,65.0,-100.00,WNW,287,2.0,4.0,100,0.00,,,0.01,0.000000,,2013-08-23 10:42:00,
2013-08-23 06:53:00,65.0,65.0,-100.00,WNW,287,2.0,4.0,100,0.00,,,0.01,0.000000,,2013-08-23 10:53:00,
2013-08-23 07:02:00,65.0,65.0,-100.00,WNW,287,2.0,4.0,100,0.00,,,0.01,0.000000,,2013-08-23 11:02:00,
2013-08-23 07:11:00,65.0,65.0,-100.00,WNW,287,2.0,4.0,100,0.00,,,0.01,0.000000,,2013-08-23 11:11:00,
2013-08-23 07:42:00,65.0,65.0,-100.00,SE,142,0.0,3.0,100,0.00,,,0.00,3.000000,,2013-08-23 11:42:00,
2013-08-23 07:53:00,65.0,65.0,-100.00,SE,142,0.0,3.0,100,0.00,,,0.00,3.000000,,2013-08-23 11:53:00,
2013-08-23 08:01:00,65.0,65.0,-100.00,SE,142,0.0,3.0,100,0.00,,,0.00,3.000000,,2013-08-23 12:01:00,
2013-08-23 08:11:00,65.0,65.0,-100.00,SE,142,0.0,3.0,100,0.00,,,0.00,3.000000,,2013-08-23 12:11:00,
2013-08-23 08:42:00,66.0,66.0,-100.00,SE,132,1.0,2.0,100,0.00,,,0.00,32.000000,,2013-08-23 12:42:00,
2013-08-23 08:52:00,66.0,66.0,-100.00,SE,132,1.0,2.0,100,0.00,,,0.00,32.000000,,2013-08-23 12:52:00,
2013-08-23 09:02:00,66.0,66.0,-100.00,SE,132,1.0,2.0,100,0.00,,,0.00,32.000000,,2013-08-23 13:02:00,
2013-08-23 09:12:00,66.0,66.0,-100.00,SE,132,1.0,2.0,100,0.00,,,0.00,32.000000,,2013-08-23 13:12:00,
2013-08-23 09:42:00,67.0,67.0,-100.00,South,175,3.0,7.0,100,0.51,,,0.51,47.000000,,2013-08-23 13:42:00,
2013-08-23 09:53:00,67.0,67.0,-100.00,South,175,3.0,7.0,100,0.51,,,0.51,47.000000,,2013-08-23 13:53:00,
2013-08-23 10:02:00,67.0,67.0,-100.00,South,175,3.0,7.0,100,0.51,,,0.51,47.000000,,2013-08-23 14:02:00,
2013-08-23 10:12:00,67.0,67.0,-100.00,South,175,3.0,7.0,100,0.51,,,0.51,47.000000,,2013-08-23 14:12:00,
2013-08-23 10:42:00,66.0,66.0,-100.00,SSE,150,1.0,7.0,100,0.15,,,0.66,51.000000,,2013-08-23 14:42:00,
2013-08-23 10:52:00,66.0,66.0,-100.00,SSE,150,1.0,7.0,100,0.15,,,0.66,51.000000,,2013-08-23 14:52:00,
2013-08-23 11:01:00,66.0,66.0,-100.00,SSE,150,1.0,7.0,100,0.15,,,0.66,51.000000,,2013-08-23 15:01:00,
2013-08-23 11:11:00,66.0,66.0,-100.00,SSE,150,1.0,7.0,100,0.15,,,0.66,51.000000,,2013-08-23 15:11:00,
2013-08-23 11:44:00,69.0,69.0,-100.00,SSE,152,1.0,3.0,100,0.00,,,0.66,119.000000,,2013-08-23 15:44:00,
2013-08-23 11:54:00,69.0,69.0,-100.00,SSE,152,1.0,3.0,100,0.00,,,0.66,119.000000,,2013-08-23 15:54:00,
2013-08-23 12:05:00,69.0,69.0,-100.00,SSE,152,1.0,3.0,100,0.00,,,0.66,119.000000,,2013-08-23 16:05:00,
2013-08-23 12:14:00,69.0,69.0,-100.00,SSE,152,1.0,3.0,100,0.00,,,0.66,119.000000,,2013-08-23 16:14:00,
2013-08-23 12:42:00,77.0,73.0,-100.00,SSE,167,2.0,4.0,87,0.00,,,0.66,513.000000,,2013-08-23 16:42:00,
2013-08-23 12:53:00,77.0,73.0,-100.00,SSE,167,2.0,4.0,87,0.00,,,0.66,513.000000,,2013-08-23 16:53:00,
2013-08-23 13:04:00,77.0,73.0,-100.00,SSE,167,2.0,4.0,87,0.00,,,0.66,513.000000,,2013-08-23 17:04:00,
2013-08-23 13:13:00,77.0,73.0,-100.00,SSE,167,2.0,4.0,87,0.00,,,0.66,513.000000,,2013-08-23 17:13:00,
2013-08-23 13:43:00,77.0,68.0,-100.00,South,174,3.0,10.0,74,0.00,,,0.66,550.000000,,2013-08-23 17:43:00,
2013-08-23 13:54:00,77.0,68.0,-100.00,South,174,3.0,10.0,74,0.00,,,0.66,550.000000,,2013-08-23 17:54:00,
2013-08-23 14:02:00,77.0,68.0,-100.00,South,174,3.0,10.0,74,0.00,,,0.66,550.000000,,2013-08-23 18:02:00,
2013-08-23 14:12:00,77.0,68.0,-100.00,South,174,3.0,10.0,74,0.00,,,0.66,550.000000,,2013-08-23 18:12:00,
2013-08-23 14:42:00,80.0,68.0,-100.00,SW,225,5.0,10.0,66,0.00,,,0.66,747.000000,,2013-08-23 18:42:00,
2013-08-23 14:52:00,80.0,68.0,-100.00,SW,225,5.0,10.0,66,0.00,,,0.66,747.000000,,2013-08-23 18:52:00,
2013-08-23 15:02:00,80.0,68.0,-100.00,SW,225,5.0,10.0,66,0.00,,,0.66,747.000000,,2013-08-23 19:02:00,
2013-08-23 15:12:00,80.0,68.0,-100.00,SW,225,5.0,10.0,66,0.00,,,0.66,747.000000,,2013-08-23 19:12:00,
2013-08-23 15:42:00,80.0,68.0,-100.00,South,184,4.0,10.0,67,0.00,,,0.66,540.000000,,2013-08-23 19:42:00,
2013-08-23 15:52:00,80.0,68.0,-100.00,South,184,4.0,10.0,67,0.00,,,0.66,540.000000,,2013-08-23 19:52:00,
2013-08-23 16:02:00,80.0,68.0,-100.00,South,184,4.0,10.0,67,0.00,,,0.66,540.000000,,2013-08-23 20:02:00,
2013-08-23 16:12:00,80.0,68.0,-100.00,South,184,4.0,10.0,67,0.00,,,0.66,540.000000,,2013-08-23 20:12:00,
2013-08-23 16:42:00,81.0,69.0,-100.00,SSW,207,4.0,11.0,66,0.00,,,0.66,546.000000,,2013-08-23 20:42:00,
2013-08-23 16:52:00,81.0,69.0,-100.00,SSW,207,4.0,11.0,66,0.00,,,0.66,546.000000,,2013-08-23 20:52:00,
2013-08-23 17:03:00,81.0,69.0,-100.00,SSW,207,4.0,11.0,66,0.00,,,0.66,546.000000,,2013-08-23 21:03:00,
2013-08-23 17:12:00,81.0,69.0,-100.00,SSW,207,4.0,11.0,66,0.00,,,0.66,546.000000,,2013-08-23 21:12:00,
2013-08-23 17:44:00,80.0,71.0,-100.00,SW,215,5.0,9.0,73,0.00,,,0.66,370.000000,,2013-08-23 21:44:00,
2013-08-23 17:54:00,80.0,71.0,-100.00,SW,215,5.0,9.0,73,0.00,,,0.66,370.000000,,2013-08-23 21:54:00,
2013-08-23 18:04:00,80.0,71.0,-100.00,SW,215,5.0,9.0,73,0.00,,,0.66,370.000000,,2013-08-23 22:04:00,
2013-08-23 18:13:00,80.0,71.0,-100.00,SW,215,5.0,9.0,73,0.00,,,0.66,370.000000,,2013-08-23 22:13:00,
2013-08-23 18:43:00,77.0,66.0,-100.00,SSW,192,4.0,14.0,68,0.00,,,0.66,367.000000,,2013-08-23 22:43:00,
2013-08-23 18:54:00,77.0,66.0,-100.00,SSW,192,4.0,14.0,68,0.00,,,0.66,367.000000,,2013-08-23 22:54:00,
2013-08-23 19:03:00,77.0,66.0,-100.00,SSW,192,4.0,14.0,68,0.00,,,0.66,367.000000,,2013-08-23 23:03:00,
2013-08-23 19:12:00,77.0,66.0,-100.00,SSW,192,4.0,14.0,68,0.00,,,0.66,367.000000,,2013-08-23 23:12:00,
2013-08-23 19:54:00,70.0,67.0,-100.00,SSE,160,5.0,9.0,89,0.17,,,0.83,116.000000,,2013-08-23 23:54:00,
2013-08-23 20:02:00,70.0,67.0,-100.00,SSE,160,5.0,9.0,89,0.17,,,0.83,116.000000,,2013-08-24 00:02:00,
2013-08-23 20:11:00,70.0,67.0,-100.00,SSE,160,5.0,9.0,89,0.17,,,0.83,116.000000,,2013-08-24 00:11:00,
2013-08-23 20:43:00,67.0,67.0,-100.00,SSE,157,2.0,5.0,100,0.01,,,0.84,10.000000,,2013-08-24 00:43:00,
2013-08-23 20:53:00,67.0,67.0,-100.00,SSE,157,2.0,5.0,100,0.01,,,0.84,10.000000,,2013-08-24 00:53:00,
2013-08-23 21:02:00,67.0,67.0,-100.00,SSE,157,2.0,5.0,100,0.01,,,0.84,10.000000,,2013-08-24 01:02:00,
2013-08-23 21:11:00,67.0,67.0,-100.00,SSE,157,2.0,5.0,100,0.01,,,0.84,10.000000,,2013-08-24 01:11:00,
2013-08-23 21:42:00,67.0,67.0,-100.00,SSE,153,1.0,3.0,100,0.00,,,0.84,0.000000,,2013-08-24 01:42:00,
2013-08-23 21:53:00,67.0,67.0,-100.00,SSE,153,1.0,3.0,100,0.00,,,0.84,0.000000,,2013-08-24 01:53:00,
2013-08-23 22:03:00,67.0,67.0,-100.00,SSE,153,1.0,3.0,100,0.00,,,0.84,0.000000,,2013-08-24 02:03:00,
2013-08-23 22:12:00,67.0,67.0,-100.00,SSE,153,1.0,3.0,100,0.00,,,0.84,0.000000,,2013-08-24 02:12:00,
2013-08-23 22:42:00,66.0,66.0,-100.00,SW,223,1.0,4.0,100,0.00,,,0.84,0.000000,,2013-08-24 02:42:00,
2013-08-23 22:52:00,66.0,66.0,-100.00,SW,223,1.0,4.0,100,0.00,,,0.84,0.000000,,2013-08-24 02:52:00,
2013-08-23 23:02:00,66.0,66.0,-100.00,SW,223,1.0,4.0,100,0.00,,,0.84,0.000000,,2013-08-24 03:02:00,
2013-08-23 23:12:00,66.0,66.0,-100.00,SW,223,1.0,4.0,100,0.00,,,0.84,0.000000,,2013-08-24 03:12:00,
2013-08-23 23:44:00,66.0,66.0,-100.00,WSW,251,2.0,4.0,100,0.00,,,0.84,0.000000,,2013-08-24 03:44:00,
2013-08-23 23:55:00,66.0,66.0,-100.00,WSW,251,2.0,4.0,100,0.00,,,0.84,0.000000,,2013-08-24 03:55:00,